Hourly Weather Draguti

Today, 4 August, Tuesday

Time Temperature Precipitation Wind Pressure Humidity
00:00 +17°C° 0 mm 4 mps 744 mmHg 85%
01:00 +17°C° 0 mm 4 mps 744 mmHg 85%
02:00 +17°C° 0 mm 4 mps 744 mmHg 86%
03:00 +16°C° 0 mm 3 mps 743 mmHg 88%
04:00 +16°C° 0 mm 3 mps 743 mmHg 90%
05:00 +14°C° 0 mm 3 mps 743 mmHg 92%
06:00 +16°C° 0 mm 3 mps 743 mmHg 89%
07:00 +17°C° 0 mm 4 mps 743 mmHg 86%
08:00 +19°C° 0 mm 4 mps 743 mmHg 83%
09:00 +20°C° 0 mm 4 mps 743 mmHg 81%
10:00 +21°C° 0 mm 4 mps 743 mmHg 78%
11:00 +22°C° 0 mm 4 mps 744 mmHg 76%
12:00 +21°C° 0.1 mm 3 mps 743 mmHg 79%
13:00 +21°C° 0.1 mm 3 mps 743 mmHg 81%
14:00 +21°C° 0.1 mm 2 mps 743 mmHg 84%
15:00 +20°C° 0.6 mm 2 mps 743 mmHg 87%
16:00 +20°C° 0.6 mm 2 mps 743 mmHg 90%
17:00 +20°C° 0.6 mm 1 mps 743 mmHg 92%
18:00 +20°C° 0.4 mm 1 mps 743 mmHg 94%
19:00 +20°C° 0.4 mm 1 mps 743 mmHg 95%
20:00 +19°C° 0.4 mm 1 mps 743 mmHg 96%
21:00 +19°C° 0.7 mm 1 mps 744 mmHg 96%
22:00 +18°C° 0.7 mm 2 mps 744 mmHg 97%
23:00 +18°C° 0.7 mm 2 mps 744 mmHg 97%

Tomorrow, 5 August, Wednesday

Time Temperature Precipitation Wind Pressure Humidity
00:00 +18°C° 0.1 mm 2 mps 745 mmHg 97%
01:00 +18°C° 0.1 mm 2 mps 745 mmHg 97%
02:00 +17°C° 0.1 mm 2 mps 746 mmHg 98%
03:00 +17°C° 0 mm 2 mps 746 mmHg 97%
04:00 +17°C° 0 mm 3 mps 746 mmHg 97%
05:00 +17°C° 0 mm 3 mps 747 mmHg 97%
06:00 +17°C° 0 mm 3 mps 747 mmHg 95%
07:00 +17°C° 0 mm 3 mps 748 mmHg 94%
08:00 +18°C° 0 mm 3 mps 748 mmHg 92%
09:00 +19°C° 0 mm 3 mps 749 mmHg 87%
10:00 +19°C° 0 mm 3 mps 749 mmHg 83%
11:00 +20°C° 0 mm 3 mps 749 mmHg 78%
12:00 +21°C° 0 mm 3 mps 750 mmHg 75%
13:00 +22°C° 0 mm 3 mps 750 mmHg 71%
14:00 +24°C° 0 mm 3 mps 750 mmHg 68%
15:00 +24°C° 0 mm 3 mps 750 mmHg 67%
16:00 +24°C° 0 mm 2 mps 750 mmHg 66%
17:00 +24°C° 0 mm 2 mps 751 mmHg 65%
18:00 +23°C° 0 mm 2 mps 751 mmHg 70%
19:00 +20°C° 0 mm 2 mps 751 mmHg 75%
20:00 +19°C° 0 mm 2 mps 751 mmHg 79%
21:00 +18°C° 0 mm 2 mps 752 mmHg 80%
22:00 +17°C° 0 mm 2 mps 752 mmHg 81%
23:00 +16°C° 0 mm 3 mps 752 mmHg 82%

Day after tomorrow, 6 August, Thursday

Time Temperature Precipitation Wind Pressure Humidity
00:00 +16°C° 0 mm 3 mps 752 mmHg 83%
01:00 +15°C° 0 mm 2 mps 753 mmHg 85%
02:00 +15°C° 0 mm 2 mps 753 mmHg 86%
03:00 +14°C° 0 mm 2 mps 753 mmHg 87%
04:00 +14°C° 0 mm 2 mps 753 mmHg 88%
05:00 +14°C° 0 mm 2 mps 753 mmHg 89%
06:00 +15°C° 0 mm 2 mps 754 mmHg 83%
07:00 +17°C° 0 mm 3 mps 754 mmHg 77%
08:00 +19°C° 0 mm 3 mps 754 mmHg 72%
09:00 +20°C° 0 mm 3 mps 754 mmHg 67%
10:00 +22°C° 0 mm 3 mps 755 mmHg 62%
11:00 +24°C° 0 mm 3 mps 755 mmHg 57%
12:00 +25°C° 0 mm 3 mps 755 mmHg 55%
13:00 +26°C° 0 mm 3 mps 755 mmHg 52%
14:00 +26°C° 0 mm 3 mps 755 mmHg 50%
15:00 +26°C° 0 mm 3 mps 755 mmHg 51%
16:00 +26°C° 0 mm 3 mps 755 mmHg 53%
17:00 +26°C° 0 mm 3 mps 755 mmHg 54%
18:00 +24°C° 0 mm 3 mps 755 mmHg 60%
19:00 +21°C° 0 mm 3 mps 755 mmHg 66%
20:00 +19°C° 0 mm 2 mps 755 mmHg 72%
21:00 +18°C° 0 mm 3 mps 755 mmHg 75%
22:00 +17°C° 0 mm 3 mps 755 mmHg 78%
23:00 +16°C° 0 mm 3 mps 756 mmHg 82%

7 August, Friday

Time Temperature Precipitation Wind Pressure Humidity
00:00 +16°C° 0 mm 3 mps 756 mmHg 83%
01:00 +15°C° 0 mm 2 mps 756 mmHg 84%
02:00 +15°C° 0 mm 2 mps 756 mmHg 85%
03:00 +14°C° 0 mm 2 mps 756 mmHg 86%
04:00 +14°C° 0 mm 2 mps 756 mmHg 87%
05:00 +14°C° 0 mm 2 mps 756 mmHg 89%
06:00 +16°C° 0 mm 2 mps 756 mmHg 83%
07:00 +18°C° 0 mm 2 mps 756 mmHg 78%
08:00 +19°C° 0 mm 2 mps 757 mmHg 73%
09:00 +21°C° 0 mm 2 mps 757 mmHg 68%
10:00 +24°C° 0 mm 2 mps 757 mmHg 62%
11:00 +25°C° 0 mm 2 mps 757 mmHg 57%
12:00 +26°C° 0 mm 2 mps 757 mmHg 55%
13:00 +27°C° 0 mm 3 mps 756 mmHg 53%
14:00 +27°C° 0 mm 3 mps 756 mmHg 51%
15:00 +27°C° 0 mm 3 mps 756 mmHg 53%
16:00 +27°C° 0 mm 3 mps 756 mmHg 55%
17:00 +27°C° 0 mm 3 mps 755 mmHg 58%
18:00 +25°C° 0 mm 3 mps 755 mmHg 64%
19:00 +23°C° 0 mm 2 mps 755 mmHg 70%
20:00 +21°C° 0 mm 2 mps 755 mmHg 77%
21:00 +20°C° 0 mm 2 mps 755 mmHg 80%
22:00 +19°C° 0 mm 2 mps 755 mmHg 83%
23:00 +18°C° 0 mm 2 mps 755 mmHg 86%

8 August, Saturday

Time Temperature Precipitation Wind Pressure Humidity
00:00 +18°C° 0 mm 2 mps 755 mmHg 88%
01:00 +17°C° 0 mm 2 mps 755 mmHg 90%
02:00 +17°C° 0 mm 2 mps 755 mmHg 91%
03:00 +16°C° 0 mm 1 mps 755 mmHg 92%
04:00 +16°C° 0 mm 1 mps 755 mmHg 92%
05:00 +16°C° 0 mm 1 mps 755 mmHg 93%
06:00 +18°C° 0 mm 1 mps 755 mmHg 87%
07:00 +19°C° 0 mm 2 mps 755 mmHg 82%
08:00 +21°C° 0 mm 2 mps 755 mmHg 76%
09:00 +23°C° 0 mm 2 mps 755 mmHg 72%
10:00 +24°C° 0 mm 2 mps 755 mmHg 67%
11:00 +25°C° 0 mm 2 mps 755 mmHg 63%
12:00 +26°C° 0.1 mm 2 mps 754 mmHg 61%
13:00 +26°C° 0.1 mm 2 mps 754 mmHg 58%
14:00 +27°C° 0.1 mm 2 mps 754 mmHg 56%
15:00 +27°C° 0.1 mm 2 mps 753 mmHg 57%
16:00 +26°C° 0.1 mm 2 mps 753 mmHg 57%
17:00 +26°C° 0.1 mm 3 mps 753 mmHg 58%
18:00 +25°C° 0 mm 2 mps 753 mmHg 63%
19:00 +23°C° 0 mm 2 mps 752 mmHg 69%
20:00 +20°C° 0 mm 2 mps 752 mmHg 75%
21:00 +19°C° 0 mm 2 mps 752 mmHg 77%
22:00 +18°C° 0 mm 2 mps 752 mmHg 78%
23:00 +19°C° 0 mm 1 mps 752 mmHg 80%

9 August, Sunday

Time Temperature Precipitation Wind Pressure Humidity
00:00 +18°C° 0 mm 1 mps 752 mmHg 82%
01:00 +18°C° 0 mm 1 mps 752 mmHg 83%
02:00 +16°C° 0 mm 1 mps 752 mmHg 85%
03:00 +16°C° 0 mm 1 mps 752 mmHg 87%
04:00 +16°C° 0 mm 1 mps 752 mmHg 88%
05:00 +16°C° 0 mm 1 mps 752 mmHg 90%
06:00 +18°C° 0 mm 1 mps 752 mmHg 85%
07:00 +20°C° 0 mm 1 mps 752 mmHg 80%
08:00 +21°C° 0 mm 1 mps 752 mmHg 75%
09:00 +23°C° 0 mm 2 mps 752 mmHg 70%
10:00 +24°C° 0 mm 2 mps 752 mmHg 65%
11:00 +25°C° 0 mm 2 mps 751 mmHg 61%
12:00 +26°C° 0.1 mm 2 mps 751 mmHg 58%
13:00 +26°C° 0.1 mm 2 mps 751 mmHg 56%
14:00 +27°C° 0.1 mm 2 mps 750 mmHg 53%
15:00 +27°C° 0 mm 2 mps 750 mmHg 53%
16:00 +27°C° 0 mm 2 mps 750 mmHg 52%
17:00 +27°C° 0 mm 2 mps 750 mmHg 52%
18:00 +25°C° 0 mm 1 mps 750 mmHg 58%
19:00 +23°C° 0 mm 1 mps 750 mmHg 64%
20:00 +21°C° 0 mm 1 mps 750 mmHg 71%
21:00 +20°C° 0 mm 1 mps 750 mmHg 73%
22:00 +19°C° 0 mm 1 mps 750 mmHg 75%
23:00 +19°C° 0 mm 1 mps 750 mmHg 77%
Show more